[[{"header":{"parameterUnit":"m.s-1","parameterCategory":1,"la1":30.2991,"la2":30.254,"lo1":-89.0895,"lo2":-89.0444,"dy":0.0017,"dx":0.0017,"nx":28,"ny":28,"refTime":"2024-04-24T21:00:00:Z","depth":0,"parameterNumber":2,"parameterNumberName":"U-component_of_WINDS"},"data":[0,0,0,0,0,0,0,0,0,0,0,0,0,0,0,0,0,0,0,0,0,0,0,0,0,0,0,0,0,0,0,0,0,0,0,0,0,0,0,0,0,0,0,0,0,0,0,0,0,0,0,0,0,0,0,0,0,0,-0.8638,-0.8636,0,-0.8535,-0.8534,-0.8533,-0.8489,-0.8489,-0.849,-0.849,-0.8383,-0.838,-0.8377,0,0,0,0,0,0,0,0,0,0,0,0,0,-0.8795,-0.8793,-0.8638,-0.8636,-0.8635,-0.8535,-0.8534,-0.8533,-0.8489,-0.8489,-0.849,-0.849,-0.8384,-0.838,-0.8376,0,0,0,0,0,0,0,0,0,0,0,0,0,-0.8713,-0.8792,-0.8638,-0.8602,-0.8597,-0.8536,-0.8534,-0.8532,-0.8489,-0.849,-0.849,-0.849,-0.8385,-0.838,-0.8376,-0.8342,0,0,-0.8362,-0.836,0,0,0,0,0,0,0,0,-0.8718,-0.8708,-0.8608,-0.8604,-0.8599,-0.8525,-0.855,-0.8468,-0.8489,-0.853,-0.849,-0.849,-0.843,-0.8422,-0.8402,-0.8337,-0.8333,-0.8362,-0.8359,-0.8357,-0.8356,0,0,0,0,0,0,0,-0.8724,-0.8712,-0.8597,-0.8607,-0.8601,-0.859,-0.8579,-0.8535,-0.8479,-0.8527,-0.8523,-0.8512,-0.8427,-0.8406,-0.8399,-0.8331,-0.8362,-0.8358,-0.8355,-0.8353,-0.8236,-0.8236,0,0,0,0,0,0,-0.8736,-0.8717,-0.86,-0.8594,-0.8661,-0.8587,-0.8575,-0.8549,-0.848,-0.847,-0.8512,-0.851,-0.8414,-0.8404,-0.8395,-0.8352,-0.8357,-0.8353,-0.835,-0.8236,-0.8236,-0.8235,0,0,0,0,0,0,-0.8739,-0.8726,-0.8604,-0.8654,-0.8638,-0.8584,-0.8556,-0.8547,-0.8525,-0.8469,-0.8459,-0.85,-0.8414,-0.8401,-0.8356,-0.8348,-0.8351,-0.8347,-0.8237,-0.8236,-0.8236,-0.8265,0,0,0,0,0,0,-0.8744,-0.8727,-0.8714,-0.8655,-0.8636,-0.8568,-0.8555,-0.8544,-0.8518,-0.8515,-0.8455,-0.8445,-0.8413,-0.8363,-0.8352,-0.8341,-0.8343,-0.8237,-0.8236,-0.8236,-0.8265,-0.8266,-0.8267,0,0,0,0,0,-0.875,-0.8725,-0.8713,-0.8699,-0.8618,-0.8567,-0.8556,-0.852,-0.8517,-0.8503,-0.8468,-0.8447,-0.8351,-0.8359,-0.8346,-0.8334,-0.8238,-0.8237,-0.8236,-0.8264,-0.8265,-0.8267,0,0,0,0,0,0,-0.8783,-0.8716,-0.8703,-0.8658,-0.8619,-0.856,-0.8541,-0.8522,-0.8482,-0.8481,-0.8437,-0.8424,-0.8383,-0.8354,-0.8364,-0.8299,-0.8293,-0.8289,-0.8319,-0.8319,-0.832,-0.8328,-0.8339,0,0,0,0,0,-0.8786,-0.875,-0.8694,-0.866,-0.8641,-0.8595,-0.8571,-0.8547,-0.8504,-0.8487,-0.8448,-0.8407,-0.8367,-0.8342,-0.8302,-0.8261,-0.8248,-0.8246,-0.8247,-0.8248,-0.8245,-0.8223,-0.8222,-0.8233,-0.8233,-0.8233,0,0,-0.8789,-0.8749,-0.8729,-0.8666,-0.8633,-0.8597,-0.8581,-0.8544,-0.8517,-0.8481,-0.8437,-0.8407,-0.8358,-0.8316,-0.8295,-0.829,-0.824,-0.8247,-0.8248,-0.8245,-0.8222,-0.8221,-0.822,-0.8232,-0.8232,-0.8232,0,0,-0.8779,-0.8745,-0.8713,-0.8681,-0.8632,-0.8601,-0.8594,-0.8539,-0.8518,-0.8473,-0.8446,-0.8414,-0.8346,-0.8313,-0.8287,-0.8268,-0.8248,-0.8256,-0.8261,-0.8239,-0.8239,-0.8238,-0.8232,-0.823,-0.8254,-0.8254,-0.8254,0,-0.879,-0.8736,-0.8699,-0.8665,-0.8638,-0.8606,-0.8574,-0.8545,-0.8484,-0.8467,-0.8463,-0.838,-0.8344,-0.8294,-0.829,-0.827,-0.8261,-0.8262,-0.8242,-0.8241,-0.8239,-0.8233,-0.823,-0.8255,-0.8255,-0.8255,-0.8255,0,-0.8752,-0.8716,-0.8696,-0.8641,-0.8612,-0.8579,-0.8538,-0.8514,-0.8493,-0.8464,-0.8419,-0.8377,-0.8329,-0.8315,-0.8293,-0.8263,-0.8262,-0.8251,-0.8243,-0.824,-0.8233,-0.8231,-0.8257,-0.8257,-0.8256,-0.8256,0,0,-0.8757,-0.8684,-0.8678,-0.8653,-0.8598,-0.8569,-0.8535,-0.8489,-0.847,-0.843,-0.8401,-0.8347,-0.8337,-0.8308,-0.8283,-0.8264,-0.8253,-0.8255,-0.8254,-0.8257,-0.8218,-0.8226,-0.8224,-0.824,-0.824,-0.8239,-0.8222,0,-0.8739,-0.8678,-0.8646,-0.8598,-0.8564,-0.8535,-0.8506,-0.8469,-0.8441,-0.8409,-0.8378,-0.834,-0.8329,-0.8312,-0.8293,-0.8259,-0.8245,-0.8259,-0.8213,-0.8212,-0.8226,-0.822,-0.8228,-0.8214,-0.8219,-0.8218,-0.8218,0,-0.8709,-0.8672,-0.8621,-0.8572,-0.8557,-0.8531,-0.8488,-0.8457,-0.8416,-0.8397,-0.8366,-0.8342,-0.8306,-0.8303,-0.8254,-0.8265,-0.8244,-0.8225,-0.8223,-0.8217,-0.8214,-0.8214,-0.8208,-0.8206,-0.8213,-0.8214,-0.8214,0,-0.8719,-0.8656,-0.8618,-0.8598,-0.8539,-0.8522,-0.8497,-0.8455,-0.8431,-0.8393,-0.8377,-0.8336,-0.8313,-0.8281,-0.8247,-0.8248,-0.8201,-0.8195,-0.8185,-0.8186,-0.8175,-0.8176,-0.8166,-0.8163,-0.8163,-0.8163,-0.8163,0,-0.8701,-0.8672,-0.8622,-0.8598,-0.8565,-0.8529,-0.8497,-0.8469,-0.8433,-0.8404,-0.8376,-0.8349,-0.8306,-0.8274,-0.8247,-0.8211,-0.8201,-0.8185,-0.8178,-0.8187,-0.8189,-0.8172,-0.8172,-0.8162,-0.8162,-0.8162,-0.8162,0,-0.8705,-0.8671,-0.8628,-0.8577,-0.8563,-0.8541,-0.8497,-0.8474,-0.8446,-0.841,-0.84,-0.8355,-0.8317,-0.828,-0.8228,-0.821,-0.8174,-0.8165,-0.8188,-0.8184,-0.8177,-0.8178,-0.8155,-0.8151,-0.815,-0.8151,-0.8151,0,-0.8697,-0.8673,-0.8621,-0.86,-0.8576,-0.8543,-0.8518,-0.8483,-0.8458,-0.8411,-0.8393,-0.8353,-0.8319,-0.8259,-0.8222,-0.8183,-0.8173,-0.8168,-0.8166,-0.8177,-0.8173,-0.8175,-0.8173,-0.8168,-0.8168,-0.8169,-0.8169,0,-0.8685,-0.867,-0.8636,-0.8597,-0.8569,-0.8536,-0.8502,-0.8487,-0.8445,-0.8419,-0.838,-0.8354,-0.8303,-0.8263,-0.822,-0.8194,-0.8175,-0.817,-0.8165,-0.8174,-0.8189,-0.8181,-0.8191,-0.817,-0.817,-0.817,-0.817,-0.817,-0.8682,-0.8661,-0.8621,-0.8585,-0.8557,-0.8527,-0.8503,-0.8473,-0.844,-0.8396,-0.8377,-0.8338,-0.8299,-0.824,-0.8214,-0.8184,-0.8179,-0.8172,-0.8171,-0.8169,-0.8172,-0.8195,-0.8176,-0.8175,-0.8175,-0.8175,-0.8175,0,-0.8669,-0.8643,-0.861,-0.8565,-0.8537,-0.8523,-0.8486,-0.8463,-0.843,-0.8395,-0.8363,-0.832,-0.8282,-0.8244,-0.8204,-0.8187,-0.8178,-0.8178,-0.8179,-0.8173,-0.8178,-0.8186,-0.8187,-0.8187,-0.8187,-0.8187,-0.8187,-0.8187,-0.8659,-0.8623,-0.8604,-0.8554,-0.8528,-0.849,-0.847,-0.8443,-0.8415,-0.8368,-0.8338,-0.8313,-0.8278,-0.8236,-0.8202,-0.8191,-0.8178,-0.8181,-0.8169,-0.8173,-0.8173,-0.8172,-0.8179,-0.8179,-0.8179,-0.8166,-0.8166,-0.8166]},{"header":{"parameterUnit":"m.s-1","parameterCategory":1,"la1":30.2991,"la2":30.254,"lo1":-89.0895,"lo2":-89.0444,"dy":0.0017,"dx":0.0017,"nx":28,"ny":28,"refTime":"2024-04-24T21:00:00:Z","depth":0,"parameterNumber":3,"parameterNumberName":"V-component_of_WINDS"},"data":[0,0,0,0,0,0,0,0,0,0,0,0,0,0,0,0,0,0,0,0,0,0,0,0,0,0,0,0,0,0,0,0,0,0,0,0,0,0,0,0,0,0,0,0,0,0,0,0,0,0,0,0,0,0,0,0,0,0,3.0709,3.0708,0,3.0666,3.0665,3.0665,3.0683,3.0684,3.0685,3.0686,3.0637,3.0635,3.0633,0,0,0,0,0,0,0,0,0,0,0,0,0,3.0802,3.08,3.0709,3.0708,3.0708,3.0666,3.0665,3.0665,3.0683,3.0684,3.0685,3.0686,3.0638,3.0636,3.0633,0,0,0,0,0,0,0,0,0,0,0,0,0,3.076,3.0799,3.0709,3.0711,3.0711,3.0666,3.0665,3.0665,3.0682,3.0684,3.0685,3.0687,3.0639,3.0636,3.0632,3.058,0,0,3.0622,3.0621,0,0,0,0,0,0,0,0,3.0763,3.0757,3.0712,3.0711,3.0711,3.0681,3.0681,3.0636,3.0682,3.0693,3.0686,3.0688,3.065,3.0646,3.0635,3.0578,3.0576,3.0622,3.062,3.0618,3.0617,0,0,0,0,0,0,0,3.0766,3.0759,3.0692,3.0711,3.071,3.0714,3.071,3.0672,3.0663,3.0692,3.0694,3.0688,3.0651,3.0638,3.0634,3.0575,3.0622,3.0619,3.0617,3.0615,3.0475,3.0473,0,0,0,0,0,0,3.0769,3.0761,3.0693,3.069,3.0741,3.0711,3.0706,3.0689,3.0664,3.0662,3.0687,3.0689,3.0643,3.0638,3.0632,3.057,3.0618,3.0615,3.0613,3.0476,3.0474,3.0472,0,0,0,0,0,0,3.0771,3.0763,3.0695,3.0726,3.0718,3.0708,3.0688,3.0688,3.0675,3.066,3.0658,3.0676,3.0644,3.0637,3.0594,3.0568,3.0614,3.0611,3.0478,3.0476,3.0473,3.0444,0,0,0,0,0,0,3.0774,3.0763,3.0744,3.0726,3.0716,3.0658,3.0687,3.0686,3.067,3.0672,3.0649,3.0647,3.0645,3.0599,3.059,3.0564,3.0608,3.048,3.0477,3.0474,3.0447,3.0441,3.0435,0,0,0,0,0,3.0777,3.0737,3.0743,3.0735,3.0692,3.0656,3.0651,3.065,3.0668,3.0648,3.0638,3.0648,3.0573,3.0594,3.0585,3.0557,3.0482,3.0478,3.0474,3.045,3.0442,3.0435,0,0,0,0,0,0,3.075,3.0734,3.0741,3.0694,3.0677,3.0659,3.0634,3.0642,3.0618,3.0621,3.062,3.0615,3.057,3.056,3.0584,3.0506,3.053,3.0524,3.0514,3.0507,3.0501,3.0504,3.0605,0,0,0,0,0,3.074,3.0713,3.07,3.066,3.0651,3.0644,3.0628,3.063,3.0611,3.0603,3.0591,3.0571,3.0543,3.0525,3.0498,3.0446,3.0441,3.0423,3.0417,3.0412,3.0407,3.0379,3.037,3.046,3.046,3.046,0,0,3.0716,3.0704,3.0687,3.0654,3.0641,3.0612,3.0638,3.0606,3.0585,3.0598,3.0557,3.0547,3.0525,3.0478,3.0456,3.0467,3.0381,3.0407,3.0404,3.0401,3.0374,3.0365,3.0358,3.0457,3.0457,3.0458,0,0,3.0658,3.0647,3.0612,3.0599,3.0579,3.0575,3.0567,3.0549,3.0544,3.0503,3.0512,3.0486,3.0438,3.0422,3.0408,3.0346,3.0353,3.0337,3.0306,3.0278,3.0271,3.0265,3.0242,3.0234,3.0332,3.0332,3.0332,0,3.0631,3.059,3.0593,3.0561,3.0546,3.0559,3.0523,3.051,3.0482,3.0471,3.0484,3.0425,3.0411,3.036,3.0345,3.0333,3.0323,3.0339,3.0272,3.0266,3.026,3.0238,3.023,3.033,3.033,3.0331,3.0331,0,3.0557,3.0528,3.0503,3.0477,3.0459,3.0426,3.0423,3.0404,3.0408,3.0402,3.036,3.0344,3.0315,3.0303,3.0305,3.0252,3.026,3.0273,3.0297,3.025,3.0229,3.0221,3.0328,3.0328,3.0329,3.0329,0,0,3.048,3.0458,3.0448,3.0437,3.0417,3.0394,3.0361,3.0335,3.0318,3.0299,3.0271,3.0231,3.0243,3.0227,3.0227,3.0203,3.0155,3.0219,3.0219,3.0207,3.0095,3.0085,3.0075,3.0161,3.0159,3.0158,3.0097,0,3.042,3.0364,3.0366,3.0313,3.0286,3.0299,3.027,3.0254,3.0248,3.0224,3.0217,3.0189,3.0207,3.0198,3.0175,3.0166,3.0132,3.017,3.0133,3.0131,3.0137,3.0065,3.0053,2.9996,3.0089,3.0087,3.0087,0,3.0342,3.0323,3.0267,3.0252,3.0241,3.0215,3.0191,3.0168,3.015,3.0148,3.013,3.0135,3.0101,3.0127,3.0079,3.0105,3.009,3.0083,3.0081,3.0076,3.0105,3.0057,2.9978,2.9969,3.0074,3.0075,3.0076,0,3.0291,3.025,3.0212,3.0202,3.0183,3.0165,3.0156,3.014,3.0124,3.0103,3.0092,3.0066,3.0052,3.0031,3.0029,3.0048,2.9981,3.0006,2.9977,2.9977,2.996,2.9961,2.9877,2.9953,2.9953,2.9953,2.9953,0,3.0223,3.0189,3.0189,3.0165,3.0126,3.0129,3.0091,3.0084,3.0069,3.0044,3.0053,3.0028,3.0027,3.0002,3.0,2.996,2.9954,2.995,2.995,2.9949,2.9949,2.9938,2.9941,2.9951,2.9951,2.9952,2.9952,0,3.0159,3.0157,3.0116,3.0103,3.0099,3.0071,3.0059,3.0036,3.0032,2.9999,2.9992,2.9985,2.9956,2.9952,2.9917,2.9916,2.9868,2.9872,2.9874,2.9875,2.9845,2.9847,2.9749,2.9737,2.9821,2.982,2.982,0,3.0115,3.0089,3.0074,3.0058,3.0049,3.0023,3.0007,3.0009,2.9992,2.9971,2.995,2.9922,2.99,2.9853,2.9844,2.9817,2.982,2.9788,2.9816,2.9816,2.9819,2.982,2.9817,2.9782,2.9781,2.978,2.978,0,3.0038,3.0039,3.0017,2.9994,2.9976,2.9958,2.9941,2.9927,2.9927,2.9907,2.9879,2.9862,2.9827,2.9799,2.9773,2.9763,2.9771,2.9771,2.9763,2.9761,2.9763,2.9761,2.9858,2.9773,2.9774,2.9774,2.9774,2.9775,2.9982,2.9959,2.9945,2.992,2.9908,2.9893,2.9871,2.9865,2.9842,2.9815,2.9817,2.9785,2.9768,2.9735,2.9723,2.9697,2.9708,2.9696,2.9692,2.9689,2.9686,2.9768,2.9693,2.9693,2.9693,2.9693,2.9693,0,2.9904,2.9897,2.9874,2.9851,2.9831,2.9843,2.9825,2.9807,2.9779,2.9764,2.9742,2.9709,2.9683,2.9672,2.9646,2.9627,2.963,2.962,2.9621,2.9618,2.9678,2.9688,2.9618,2.9618,2.9618,2.9618,2.9618,2.9618,2.9862,2.9825,2.9824,2.9781,2.9773,2.9743,2.9732,2.9718,2.9705,2.9669,2.9647,2.9641,2.9628,2.9601,2.9576,2.9574,2.9563,2.9551,2.955,2.9606,2.9614,2.9621,2.963,2.9549,2.9549,2.9492,2.9492,2.9491]}]]